TimeEST,TemperatureF,Dew PointF,Humidity,Sea Level PressureIn,VisibilityMPH,Wind Direction,Wind SpeedMPH,Gust SpeedMPH,PrecipitationIn,Events,Conditions,WindDirDegrees,DateUTC
12:53 AM,30.9,18.0,59,30.26,10.0,NNW,4.6,-,N/A,,Clear,330,2012-12-06 05:53:00
1:53 AM,32.0,18.0,56,30.28,10.0,Variable,3.5,-,N/A,,Clear,0,2012-12-06 06:53:00
2:53 AM,30.9,18.0,59,30.28,10.0,NNW,5.8,-,N/A,,Clear,330,2012-12-06 07:53:00
3:53 AM,30.0,18.0,61,30.28,10.0,NNW,4.6,-,N/A,,Clear,340,2012-12-06 08:53:00
4:53 AM,28.9,18.0,64,30.29,10.0,North,4.6,-,N/A,,Clear,350,2012-12-06 09:53:00
5:53 AM,28.9,18.0,64,30.31,10.0,North,3.5,-,N/A,,Clear,10,2012-12-06 10:53:00
6:53 AM,28.0,18.0,66,30.32,10.0,North,5.8,-,N/A,,Clear,360,2012-12-06 11:53:00
7:53 AM,28.9,19.0,67,30.34,10.0,North,3.5,-,N/A,,Clear,350,2012-12-06 12:53:00
8:53 AM,32.0,19.0,59,30.36,10.0,NE,3.5,-,N/A,,Clear,40,2012-12-06 13:53:00
9:53 AM,34.0,18.0,52,30.37,10.0,North,5.8,-,N/A,,Clear,360,2012-12-06 14:53:00
10:53 AM,36.0,18.0,48,30.36,10.0,Calm,Calm,-,N/A,,Clear,0,2012-12-06 15:53:00
11:53 AM,37.9,18.0,45,30.32,10.0,East,4.6,-,N/A,,Clear,80,2012-12-06 16:53:00
12:53 PM,37.9,19.0,47,30.30,10.0,Calm,Calm,-,N/A,,Clear,0,2012-12-06 17:53:00
1:53 PM,39.0,18.0,43,30.28,10.0,Calm,Calm,-,N/A,,Clear,0,2012-12-06 18:53:00
2:53 PM,39.9,18.0,41,30.27,10.0,Calm,Calm,-,N/A,,Clear,0,2012-12-06 19:53:00
3:53 PM,39.0,17.1,41,30.28,10.0,Calm,Calm,-,N/A,,Clear,0,2012-12-06 20:53:00
4:53 PM,37.9,18.0,45,30.28,10.0,Calm,Calm,-,N/A,,Clear,0,2012-12-06 21:53:00
5:53 PM,34.0,19.0,54,30.27,10.0,Calm,Calm,-,N/A,,Clear,0,2012-12-06 22:53:00
6:53 PM,33.1,19.9,59,30.28,10.0,Calm,Calm,-,N/A,,Clear,0,2012-12-06 23:53:00
7:53 PM,32.0,19.9,61,30.29,10.0,Calm,Calm,-,N/A,,Clear,0,2012-12-07 00:53:00
8:53 PM,30.9,19.9,64,30.29,10.0,Calm,Calm,-,N/A,,Clear,0,2012-12-07 01:53:00
9:53 PM,30.9,23.0,72,30.28,10.0,South,4.6,-,N/A,,Clear,180,2012-12-07 02:53:00
10:53 PM,30.0,23.0,75,30.29,10.0,SSW,4.6,-,N/A,,Clear,200,2012-12-07 03:53:00
11:53 PM,30.9,24.1,76,30.27,10.0,Calm,Calm,-,N/A,,Clear,0,2012-12-07 04:53:00